FW1312 Weather Reports


Display with metric or nautical units.
time (UTC)temp
F
wind
direction
speed
MPH
gust
MPH
rain 1hr
in
rain 24hr
in
rain mn
in
humidity
%
barometer
mb
20260905193025 92 43 2.0 8.0 0.00 0.00 0.00 76 1011.3
20260905191542 92 199 3.0 10.0 0.00 0.00 0.00 78 1011.4
20260905190002 91 200 2.0 6.0 0.00 0.00 0.00 79 1011.6
20260905184546 90 263 3.0 9.0 0.00 0.00 0.00 80 1011.7
20260905183020 90 74 5.0 10.0 0.00 0.00 0.00 81 1012.1
20260905181558 89 173 1.0 4.0 0.00 0.00 0.00 82 1012.5
20260905180026 89 119 2.0 6.0 0.00 0.00 0.00 83 1012.8
20260905174600 88 169 2.0 7.0 0.00 0.00 0.00 83 1013.0
20260905173034 88 156 0.0 5.0 0.00 0.00 0.00 84 1013.2
20260905171515 87 94 3.0 6.0 0.00 0.00 0.00 85 1013.4
20260905170008 87 61 2.0 5.0 0.00 0.00 0.00 85 1013.4
20260905164546 87 229 0.0 2.0 0.00 0.00 0.00 86 1013.5
20260905163022 87 183 2.0 7.0 0.00 0.00 0.00 86 1013.6
20260905161518 86 143 4.0 8.0 0.00 0.00 0.00 87 1013.5
20260905160014 86 180 3.0 7.0 0.00 0.00 0.00 88 1013.6
20260905154606 85 221 0.0 9.0 0.00 0.01 0.00 88 1013.6
20260905153033 85 232 4.0 8.0 0.00 0.01 0.00 88 1013.6
20260905151511 84 225 3.0 10.0 0.00 0.01 0.00 88 1013.5
20260905150044 84 261 1.0 4.0 0.00 0.01 0.00 88 1013.5
20260905144528 83 290 1.0 7.0 0.00 0.01 0.00 88 1013.6
20260905143043 81 262 0.0 3.0 0.00 0.01 0.00 87 1013.7
20260905141525 81 141 0.0 0.0 0.00 0.01 0.00 87 1013.7
20260905140008 80 140 0.0 0.0 0.00 0.01 0.00 87 1013.7
20260905134531 79 173 0.0 0.0 0.00 0.01 0.00 87 1013.6
20260905133007 77 173 0.0 0.0 0.00 0.01 0.00 86 1013.5
20260905131613 76 173 0.0 1.0 0.00 0.01 0.00 86 1013.4
20260905130028 75 174 1.0 3.0 0.00 0.01 0.00 86 1013.4
20260905124520 74 175 2.0 4.0 0.00 0.01 0.00 85 1013.1
20260905123030 74 197 1.0 3.0 0.00 0.01 0.00 85 1012.9
20260905121549 74 197 0.0 0.0 0.00 0.01 0.00 85 1012.8
20260905120022 74 197 0.0 0.0 0.00 0.01 0.00 85 1012.6
20260905050009 79 156 2.0 6.0 0.00 0.03 0.00 77 1012.5
20260905044552 79 171 1.0 4.0 0.00 0.03 0.03 77 1012.5
20260905043030 80 145 2.0 7.0 0.00 0.03 0.03 76 1012.6
20260905041550 80 136 3.0 7.0 0.00 0.03 0.03 76 1012.5
20260905040019 80 165 3.0 7.0 0.00 0.03 0.03 76 1012.6
20260905034532 80 190 2.0 8.0 0.00 0.03 0.03 75 1012.6
20260905033104 80 134 4.0 8.0 0.00 0.03 0.03 75 1012.5
20260905031520 79 140 3.0 9.0 0.00 0.03 0.03 74 1012.5
20260905030013 79 127 2.0 7.0 0.00 0.03 0.03 74 1012.5
20260905024603 80 111 3.0 7.0 0.00 0.03 0.03 73 1012.4
20260905023042 80 133 3.0 7.0 0.00 0.03 0.03 73 1012.4
20260905021511 81 119 1.0 5.0 0.00 0.03 0.03 73 1012.2
20260905020025 82 173 2.0 5.0 0.00 0.03 0.03 73 1012.0
20260905014510 82 162 3.0 5.0 0.00 0.03 0.03 73 1011.8
20260905013049 83 139 2.0 7.0 0.00 0.03 0.03 73 1011.8
20260905011513 84 143 2.0 6.0 0.00 0.03 0.03 73 1011.4
20260905010028 85 123 3.0 5.0 0.00 0.03 0.03 73 1011.3
20260905004549 86 140 2.0 3.0 0.00 0.03 0.03 74 1011.1
20260905003039 87 131 3.0 7.0 0.00 0.03 0.03 75 1011.0
20260905001523 87 163 1.0 7.0 0.00 0.03 0.03 76 1011.0
20260905000034 88 135 3.0 10.0 0.00 0.03 0.03 77 1011.0
20260904234513 89 132 6.0 10.0 0.00 0.04 0.03 78 1011.0
20260904233049 89 103 4.0 9.0 0.00 0.04 0.03 79 1011.0
20260904231528 89 113 6.0 11.0 0.00 0.04 0.03 80 1011.0
20260904230050 89 147 7.0 12.0 0.00 0.04 0.03 82 1011.0
20260904224514 89 121 4.0 10.0 0.00 0.04 0.03 83 1010.9
20260904223100 89 149 4.0 9.0 0.00 0.04 0.03 84 1011.1
20260904221532 89 140 5.0 14.0 0.00 0.04 0.03 84 1011.1
20260904220001 89 153 3.0 10.0 0.00 0.04 0.03 85 1011.1
20260904214509 88 160 4.0 13.0 0.00 0.05 0.03 86 1011.5
20260904213052 88 145 4.0 13.0 0.00 0.05 0.03 86 1011.5
20260904211513 89 138 6.0 11.0 0.00 0.05 0.03 87 1011.8
20260904210026 89 160 5.0 15.0 0.00 0.05 0.03 87 1011.8
20260904204508 89 146 5.0 12.0 0.00 0.05 0.03 88 1011.9
20260904203017 89 80 9.0 18.0 0.00 0.05 0.03 89 1012.1
20260904201502 89 105 6.0 13.0 0.00 0.05 0.03 89 1012.2
20260904200110 89 126 5.0 14.0 0.00 0.05 0.03 90 1012.2
20260904194544 88 213 3.0 10.0 0.00 0.05 0.03 91 1012.2